Time,TemperatureF,DewpointF,PressureIn,WindDirection,WindDirectionDegrees,WindSpeedMPH,WindSpeedGustMPH,Humidity,HourlyPrecipIn,Conditions,Clouds,dailyrainin,SoftwareType,DateUTC
2013-09-08 00:00:00,74.8,70.7,29.91,ENE,68,0.0,2.0,87,0.00,,---,0.00,VWS V14.01,2013-09-08 05:00:00,
2013-09-08 00:10:00,74.5,70.7,29.91,North,0,1.0,3.0,88,0.00,,---,0.00,VWS V14.01,2013-09-08 05:10:00,
2013-09-08 00:13:00,73.9,71.0,29.91,NNE,15,1.0,2.0,89,0.00,,,0.00,weatherlink.com 1.10,2013-09-08 05:13:00,
2013-09-08 00:20:00,73.9,70.5,29.91,North,0,0.0,2.0,89,0.00,,---,0.00,VWS V14.01,2013-09-08 05:20:00,
2013-09-08 00:28:00,73.6,70.0,29.91,North,11,0.0,1.0,89,0.00,,,0.00,weatherlink.com 1.10,2013-09-08 05:28:00,
2013-09-08 00:30:00,73.7,70.3,29.91,NNE,22,0.0,1.0,89,0.00,,---,0.00,VWS V14.01,2013-09-08 05:30:00,
2013-09-08 00:40:00,73.5,70.4,29.91,NNE,22,0.0,1.0,90,0.00,,---,0.00,VWS V14.01,2013-09-08 05:40:00,
2013-09-08 00:43:00,73.4,70.0,29.91,NNE,12,0.0,1.0,90,0.00,,,0.00,weatherlink.com 1.10,2013-09-08 05:43:00,
2013-09-08 00:50:00,73.4,70.3,29.91,NNE,22,0.0,1.0,90,0.00,,---,0.00,VWS V14.01,2013-09-08 05:50:00,
2013-09-08 00:59:00,73.0,70.0,29.91,NNE,12,0.0,0.0,90,0.00,,,0.00,weatherlink.com 1.10,2013-09-08 05:59:00,
2013-09-08 01:00:00,73.1,70.3,29.92,NNE,22,0.0,0.0,91,0.00,,---,0.00,VWS V14.01,2013-09-08 06:00:00,
2013-09-08 01:10:00,72.8,70.0,29.92,NNE,22,0.0,0.0,91,0.00,,---,0.00,VWS V14.01,2013-09-08 06:10:00,
2013-09-08 01:13:00,72.6,70.0,29.92,NE,50,0.0,0.0,91,0.00,,,0.00,weatherlink.com 1.10,2013-09-08 06:13:00,
2013-09-08 01:20:00,72.5,69.7,29.92,NNE,22,0.0,0.0,91,0.00,,---,0.00,VWS V14.01,2013-09-08 06:20:00,
2013-09-08 01:28:00,72.1,70.0,29.92,NE,50,0.0,0.0,92,0.00,,,0.00,weatherlink.com 1.10,2013-09-08 06:28:00,
2013-09-08 01:30:00,72.2,69.8,29.92,NNE,22,0.0,0.0,92,0.00,,---,0.00,VWS V14.01,2013-09-08 06:30:00,
2013-09-08 01:40:00,72.0,69.9,29.92,NNE,22,0.0,0.0,93,0.00,,---,0.00,VWS V14.01,2013-09-08 06:40:00,
2013-09-08 01:43:00,71.8,70.0,29.91,NE,49,0.0,0.0,93,0.00,,,0.00,weatherlink.com 1.10,2013-09-08 06:43:00,
2013-09-08 01:50:00,71.8,69.7,29.92,NNE,22,0.0,0.0,93,0.00,,---,0.00,VWS V14.01,2013-09-08 06:50:00,
2013-09-08 01:59:00,71.8,70.0,29.92,NE,49,0.0,1.0,93,0.00,,,0.00,weatherlink.com 1.10,2013-09-08 06:59:00,
2013-09-08 02:00:00,71.7,69.6,29.92,NE,45,0.0,1.0,93,0.00,,---,0.00,VWS V14.01,2013-09-08 07:00:00,
2013-09-08 02:10:00,71.7,69.6,29.92,NE,45,0.0,0.0,93,0.00,,---,0.00,VWS V14.01,2013-09-08 07:10:00,
2013-09-08 02:14:00,71.7,70.0,29.91,NE,49,0.0,1.0,93,0.00,,,0.00,weatherlink.com 1.10,2013-09-08 07:14:00,
2013-09-08 02:20:00,71.7,69.6,29.91,NE,45,0.0,1.0,93,0.00,,---,0.00,VWS V14.01,2013-09-08 07:20:00,
2013-09-08 02:28:00,71.4,69.0,29.91,NE,49,0.0,0.0,93,0.00,,,0.00,weatherlink.com 1.10,2013-09-08 07:28:00,
2013-09-08 02:30:00,71.5,69.4,29.91,NE,45,0.0,0.0,93,0.00,,---,0.00,VWS V14.01,2013-09-08 07:30:00,
2013-09-08 02:40:00,71.2,69.1,29.91,NE,45,0.0,1.0,93,0.00,,---,0.00,VWS V14.01,2013-09-08 07:40:00,
2013-09-08 02:43:00,71.0,69.0,29.91,NE,49,0.0,0.0,93,0.00,,,0.00,weatherlink.com 1.10,2013-09-08 07:43:00,
2013-09-08 02:50:00,71.0,69.2,29.91,NE,45,0.0,1.0,94,0.00,,---,0.00,VWS V14.01,2013-09-08 07:50:00,
2013-09-08 02:58:00,70.9,69.0,29.91,NE,49,0.0,0.0,94,0.00,,,0.00,weatherlink.com 1.10,2013-09-08 07:58:00,
2013-09-08 03:00:00,70.9,69.1,29.91,NE,45,0.0,0.0,94,0.00,,---,0.00,VWS V14.01,2013-09-08 08:00:00,
2013-09-08 03:10:00,70.8,69.0,29.91,NE,45,0.0,1.0,94,0.00,,---,0.00,VWS V14.01,2013-09-08 08:10:00,
2013-09-08 03:13:00,70.9,70.0,29.91,NE,49,0.0,1.0,95,0.00,,,0.00,weatherlink.com 1.10,2013-09-08 08:13:00,
2013-09-08 03:20:00,70.9,69.1,29.91,NE,45,0.0,1.0,94,0.00,,---,0.00,VWS V14.01,2013-09-08 08:20:00,
2013-09-08 03:28:00,70.8,69.0,29.91,NE,49,0.0,1.0,94,0.00,,,0.00,weatherlink.com 1.10,2013-09-08 08:28:00,
2013-09-08 03:30:00,70.9,69.1,29.91,NE,45,0.0,1.0,94,0.00,,---,0.00,VWS V14.01,2013-09-08 08:30:00,
2013-09-08 03:40:00,70.6,68.8,29.91,NE,45,0.0,1.0,94,0.00,,---,0.00,VWS V14.01,2013-09-08 08:40:00,
2013-09-08 03:44:00,70.4,69.0,29.91,NE,49,0.0,1.0,94,0.00,,,0.00,weatherlink.com 1.10,2013-09-08 08:44:00,
2013-09-08 03:50:00,70.4,68.9,29.91,NE,45,0.0,0.0,95,0.00,,---,0.00,VWS V14.01,2013-09-08 08:50:00,
2013-09-08 03:58:00,70.3,69.0,29.90,NE,49,0.0,1.0,95,0.00,,,0.00,weatherlink.com 1.10,2013-09-08 08:58:00,
2013-09-08 04:00:00,70.2,68.7,29.90,NE,45,0.0,1.0,95,0.00,,---,0.00,VWS V14.01,2013-09-08 09:00:00,
2013-09-08 04:10:00,70.3,68.8,29.90,NE,45,0.0,1.0,95,0.00,,---,0.00,VWS V14.01,2013-09-08 09:10:00,
2013-09-08 04:13:00,70.3,69.0,29.90,NE,49,0.0,0.0,95,0.00,,,0.00,weatherlink.com 1.10,2013-09-08 09:13:00,
2013-09-08 04:20:00,70.4,68.9,29.90,NE,45,0.0,0.0,95,0.00,,---,0.00,VWS V14.01,2013-09-08 09:20:00,
2013-09-08 04:29:00,70.1,69.0,29.90,NE,49,0.0,1.0,95,0.00,,,0.00,weatherlink.com 1.10,2013-09-08 09:29:00,
2013-09-08 04:30:00,70.2,68.7,29.90,NE,45,0.0,1.0,95,0.00,,---,0.00,VWS V14.01,2013-09-08 09:30:00,
2013-09-08 04:40:00,70.1,68.9,29.90,NE,45,0.0,2.0,96,0.00,,---,0.00,VWS V14.01,2013-09-08 09:40:00,
2013-09-08 04:45:00,70.2,69.0,29.90,NNE,13,1.0,2.0,96,0.00,,,0.00,weatherlink.com 1.10,2013-09-08 09:45:00,
2013-09-08 04:50:00,70.2,69.0,29.90,NNE,22,1.0,2.0,96,0.00,,---,0.00,VWS V14.01,2013-09-08 09:50:00,
2013-09-08 04:59:00,69.7,68.0,29.90,North,5,2.0,2.0,95,0.00,,,0.00,weatherlink.com 1.10,2013-09-08 09:59:00,
2013-09-08 05:00:00,69.9,68.4,29.90,North,0,1.0,2.0,95,0.00,,---,0.00,VWS V14.01,2013-09-08 10:00:00,
2013-09-08 05:10:00,69.8,68.6,29.90,North,0,0.0,2.0,96,0.00,,---,0.00,VWS V14.01,2013-09-08 10:10:00,
2013-09-08 05:14:00,70.0,69.0,29.89,NE,56,1.0,1.0,96,0.00,,,0.00,weatherlink.com 1.10,2013-09-08 10:14:00,
2013-09-08 05:20:00,70.0,68.8,29.89,NE,45,0.0,1.0,96,0.00,,---,0.00,VWS V14.01,2013-09-08 10:20:00,
2013-09-08 05:29:00,70.1,69.0,29.89,ENE,70,0.0,1.0,95,0.00,,,0.00,weatherlink.com 1.10,2013-09-08 10:29:00,
2013-09-08 05:30:00,70.1,68.6,29.89,ENE,68,0.0,1.0,95,0.00,,---,0.00,VWS V14.01,2013-09-08 10:30:00,
2013-09-08 05:40:00,70.1,68.9,29.88,SE,135,1.0,3.0,96,0.00,,---,0.00,VWS V14.01,2013-09-08 10:40:00,
2013-09-08 05:44:00,70.7,69.0,29.87,East,89,1.0,3.0,95,0.00,,,0.00,weatherlink.com 1.10,2013-09-08 10:44:00,
2013-09-08 05:50:00,70.8,69.0,29.87,SE,135,1.0,3.0,94,0.00,,---,0.00,VWS V14.01,2013-09-08 10:50:00,
2013-09-08 05:59:00,71.0,69.0,29.88,North,1,0.0,2.0,93,0.00,,,0.00,weatherlink.com 1.10,2013-09-08 10:59:00,
2013-09-08 06:00:00,71.1,69.0,29.88,ENE,68,1.0,2.0,93,0.00,,---,0.00,VWS V14.01,2013-09-08 11:00:00,
2013-09-08 06:10:00,70.7,69.2,29.88,ENE,68,0.0,2.0,95,0.00,,---,0.00,VWS V14.01,2013-09-08 11:10:00,
2013-09-08 06:14:00,70.6,69.0,29.88,North,10,1.0,3.0,94,0.00,,,0.00,weatherlink.com 1.10,2013-09-08 11:14:00,
2013-09-08 06:20:00,70.5,68.7,29.88,North,0,1.0,3.0,94,0.00,,---,0.00,VWS V14.01,2013-09-08 11:20:00,
2013-09-08 06:29:00,70.2,69.0,29.88,NNE,24,1.0,2.0,95,0.00,,,0.00,weatherlink.com 1.10,2013-09-08 11:29:00,
2013-09-08 06:30:00,70.2,68.7,29.88,NNE,22,1.0,2.0,95,0.00,,---,0.00,VWS V14.01,2013-09-08 11:30:00,
2013-09-08 06:40:00,70.1,68.6,29.87,NNE,22,0.0,1.0,95,0.00,,---,0.00,VWS V14.01,2013-09-08 11:40:00,
2013-09-08 06:44:00,70.2,69.0,29.87,East,79,0.0,1.0,96,0.00,,,0.00,weatherlink.com 1.10,2013-09-08 11:44:00,
2013-09-08 06:50:00,70.3,68.8,29.87,East,90,1.0,2.0,95,0.00,,---,0.00,VWS V14.01,2013-09-08 11:50:00,
2013-09-08 06:59:00,70.6,69.0,29.87,ENE,72,0.0,2.0,95,0.00,,,0.00,weatherlink.com 1.10,2013-09-08 11:59:00,
2013-09-08 07:00:00,70.6,69.1,29.87,ENE,68,1.0,2.0,95,0.00,,---,0.00,VWS V14.01,2013-09-08 12:00:00,
2013-09-08 07:10:00,70.6,69.1,29.87,ENE,68,1.0,2.0,95,0.00,,---,0.00,VWS V14.01,2013-09-08 12:10:00,
2013-09-08 07:14:00,70.6,69.0,29.87,NE,55,0.0,2.0,95,0.00,,,0.00,weatherlink.com 1.10,2013-09-08 12:14:00,
2013-09-08 07:20:00,70.6,69.1,29.88,NE,45,0.0,2.0,95,0.00,,---,0.00,VWS V14.01,2013-09-08 12:20:00,
2013-09-08 07:29:00,70.6,69.0,29.88,NNE,32,0.0,3.0,95,0.00,,,0.00,weatherlink.com 1.10,2013-09-08 12:29:00,
2013-09-08 07:30:00,70.6,69.1,29.88,NE,45,1.0,3.0,95,0.00,,---,0.00,VWS V14.01,2013-09-08 12:30:00,
2013-09-08 07:40:00,70.5,69.0,29.88,NE,45,0.0,1.0,95,0.00,,---,0.00,VWS V14.01,2013-09-08 12:40:00,
2013-09-08 07:44:00,70.9,70.0,29.88,NE,43,2.0,2.0,95,0.00,,,0.00,weatherlink.com 1.10,2013-09-08 12:44:00,
2013-09-08 07:50:00,70.9,69.1,29.88,NE,45,1.0,2.0,94,0.00,,---,0.00,VWS V14.01,2013-09-08 12:50:00,
2013-09-08 07:59:00,71.9,70.0,29.88,NE,52,1.0,2.0,93,0.00,,,0.00,weatherlink.com 1.10,2013-09-08 12:59:00,
2013-09-08 08:00:00,71.6,69.5,29.88,NE,45,1.0,2.0,93,0.00,,---,0.00,VWS V14.01,2013-09-08 13:00:00,
2013-09-08 08:10:00,72.2,69.8,29.88,ENE,68,1.0,2.0,92,0.00,,---,0.00,VWS V14.01,2013-09-08 13:10:00,
2013-09-08 08:14:00,73.0,71.0,29.88,ENE,68,1.0,2.0,92,0.00,,,0.00,weatherlink.com 1.10,2013-09-08 13:14:00,
2013-09-08 08:20:00,73.1,70.0,29.88,ENE,68,1.0,3.0,90,0.00,,---,0.00,VWS V14.01,2013-09-08 13:20:00,
2013-09-08 08:29:00,74.0,71.0,29.88,NE,46,2.0,4.0,90,0.00,,,0.00,weatherlink.com 1.10,2013-09-08 13:29:00,
2013-09-08 08:30:00,70.6,69.1,29.88,NE,45,1.0,3.0,95,0.00,,---,0.00,VWS V14.01,2013-09-08 13:30:00,
2013-09-08 08:39:00,73.1,70.0,29.88,ENE,68,1.0,3.0,90,0.00,,---,0.00,VWS V14.01,2013-09-08 13:39:00,
2013-09-08 08:40:00,74.4,70.9,29.88,ESE,105,4.0,6.0,89,0.00,,---,0.00,VWS V14.01,2013-09-08 13:40:00,
2013-09-08 08:44:00,74.7,71.2,29.88,ESE,106,2.0,4.0,89,0.00,,---,0.00,VWS V14.01,2013-09-08 13:44:00,
2013-09-08 08:49:00,75.0,71.2,29.88,NE,45,3.0,4.0,88,0.00,,---,0.00,VWS V14.01,2013-09-08 13:49:00,
2013-09-08 08:50:00,75.0,71.2,29.88,NE,37,3.0,4.0,88,0.00,,---,0.00,VWS V14.01,2013-09-08 13:50:00,
2013-09-08 08:54:00,75.0,71.2,29.88,NE,53,2.0,4.0,88,0.00,,---,0.00,VWS V14.01,2013-09-08 13:54:00,
2013-09-08 08:59:00,75.4,71.3,29.88,ESE,108,1.0,4.0,87,0.00,,---,0.00,VWS V14.01,2013-09-08 13:59:00,
2013-09-08 09:00:00,75.5,71.4,29.88,ENE,69,2.0,4.0,87,0.00,,---,0.00,VWS V14.01,2013-09-08 14:00:00,
2013-09-08 09:04:00,76.0,71.5,29.88,WSW,252,2.0,6.0,86,0.00,,---,0.00,VWS V14.01,2013-09-08 14:04:00,
2013-09-08 09:09:00,76.5,71.7,29.88,ESE,122,2.0,6.0,85,0.00,,---,0.00,VWS V14.01,2013-09-08 14:09:00,
2013-09-08 09:10:00,76.6,71.8,29.88,ENE,67,1.0,6.0,85,0.00,,---,0.00,VWS V14.01,2013-09-08 14:10:00,
2013-09-08 09:14:00,77.3,72.4,29.88,ENE,61,2.0,4.0,85,0.00,,---,0.00,VWS V14.01,2013-09-08 14:14:00,
2013-09-08 09:19:00,78.2,72.6,29.88,SE,140,1.0,4.0,83,0.00,,---,0.00,VWS V14.01,2013-09-08 14:19:00,
2013-09-08 09:20:00,78.4,72.4,29.88,ESE,109,2.0,4.0,82,0.00,,---,0.00,VWS V14.01,2013-09-08 14:20:00,
2013-09-08 09:24:00,78.7,72.0,29.88,SSW,194,3.0,6.0,80,0.00,,---,0.00,VWS V14.01,2013-09-08 14:24:00,
2013-09-08 09:30:00,78.7,71.6,29.89,ESE,112,3.0,6.0,79,0.00,,---,0.00,VWS V14.01,2013-09-08 14:30:00,
2013-09-08 09:35:00,79.1,72.0,29.89,ESE,111,3.0,6.0,79,0.00,,,0.00,weatherlink.com 1.10,2013-09-08 14:35:00,
2013-09-08 09:40:00,79.0,71.9,29.89,ENE,68,3.0,6.0,79,0.00,,---,0.00,VWS V14.01,2013-09-08 14:40:00,
2013-09-08 09:50:00,78.8,72.0,29.90,East,79,4.0,8.0,79,0.00,,,0.00,weatherlink.com 1.10,2013-09-08 14:50:00,
2013-09-08 10:00:00,78.9,71.8,29.91,NE,45,4.0,9.0,79,0.00,,---,0.00,VWS V14.01,2013-09-08 15:00:00,
2013-09-08 10:05:00,78.9,72.0,29.90,NE,53,3.0,8.0,79,0.00,,,0.00,weatherlink.com 1.10,2013-09-08 15:05:00,
2013-09-08 10:10:00,78.9,72.2,29.90,NE,45,4.0,8.0,80,0.00,,---,0.00,VWS V14.01,2013-09-08 15:10:00,
2013-09-08 10:20:00,79.6,72.0,29.91,ENE,64,5.0,7.0,78,0.00,,,0.00,weatherlink.com 1.10,2013-09-08 15:20:00,
2013-09-08 10:30:00,79.4,71.9,29.91,NE,45,4.0,7.0,78,0.00,,---,0.00,VWS V14.01,2013-09-08 15:30:00,
2013-09-08 10:35:00,78.8,72.0,29.91,NE,38,6.0,8.0,79,0.00,,,0.00,weatherlink.com 1.10,2013-09-08 15:35:00,
2013-09-08 10:40:00,78.8,72.1,29.91,NE,45,4.0,8.0,80,0.00,,---,0.00,VWS V14.01,2013-09-08 15:40:00,
2013-09-08 10:50:00,79.7,72.0,29.90,NE,40,6.0,10.0,78,0.00,,,0.00,weatherlink.com 1.10,2013-09-08 15:50:00,
2013-09-08 11:00:00,79.9,72.1,29.90,NE,45,4.0,8.0,77,0.00,,---,0.00,VWS V14.01,2013-09-08 16:00:00,
2013-09-08 11:05:00,79.7,72.0,29.90,NNE,29,5.0,8.0,78,0.00,,,0.00,weatherlink.com 1.10,2013-09-08 16:05:00,
2013-09-08 11:10:00,79.7,72.2,29.90,ENE,68,5.0,10.0,78,0.00,,---,0.00,VWS V14.01,2013-09-08 16:10:00,
2013-09-08 11:20:00,80.3,73.0,29.90,NE,49,2.0,9.0,77,0.00,,,0.00,weatherlink.com 1.10,2013-09-08 16:20:00,
2013-09-08 11:30:00,81.0,71.9,29.90,NE,45,4.0,8.0,74,0.00,,---,0.00,VWS V14.01,2013-09-08 16:30:00,
2013-09-08 11:35:00,82.4,73.0,29.89,SSE,149,4.0,8.0,73,0.00,,,0.00,weatherlink.com 1.10,2013-09-08 16:35:00,
2013-09-08 11:40:00,82.3,72.8,29.89,ESE,112,4.0,8.0,73,0.00,,---,0.00,VWS V14.01,2013-09-08 16:40:00,
2013-09-08 11:50:00,83.3,72.5,29.88,ENE,68,5.0,11.0,70,0.00,,---,0.00,VWS V14.01,2013-09-08 16:50:00,
2013-09-08 11:51:00,83.7,73.0,29.88,East,79,6.0,10.0,70,0.00,,,0.00,weatherlink.com 1.10,2013-09-08 16:51:00,
2013-09-08 12:00:00,83.9,72.7,29.88,East,90,5.0,12.0,69,0.00,,---,0.00,VWS V14.01,2013-09-08 17:00:00,
2013-09-08 12:06:00,84.4,73.0,29.88,NE,56,5.0,9.0,69,0.00,,,0.00,weatherlink.com 1.10,2013-09-08 17:06:00,
2013-09-08 12:10:00,84.4,72.7,29.88,ENE,68,5.0,9.0,68,0.00,,---,0.00,VWS V14.01,2013-09-08 17:10:00,
2013-09-08 12:20:00,84.6,72.4,29.88,East,90,5.0,9.0,67,0.00,,---,0.00,VWS V14.01,2013-09-08 17:20:00,
2013-09-08 12:21:00,84.6,72.0,29.88,ESE,120,4.0,9.0,67,0.00,,,0.00,weatherlink.com 1.10,2013-09-08 17:21:00,
2013-09-08 12:30:00,84.8,72.6,29.88,ENE,68,5.0,8.0,67,0.00,,---,0.00,VWS V14.01,2013-09-08 17:30:00,
2013-09-08 12:36:00,85.4,73.0,29.88,ESE,119,4.0,10.0,66,0.00,,,0.00,weatherlink.com 1.10,2013-09-08 17:36:00,
2013-09-08 12:40:00,85.3,72.2,29.87,NE,45,5.0,10.0,65,0.00,,---,0.00,VWS V14.01,2013-09-08 17:40:00,
2013-09-08 12:50:00,85.9,72.8,29.87,ENE,68,5.0,9.0,65,0.00,,---,0.00,VWS V14.01,2013-09-08 17:50:00,
2013-09-08 12:51:00,86.3,73.0,29.87,NE,53,4.0,9.0,64,0.00,,,0.00,weatherlink.com 1.10,2013-09-08 17:51:00,
2013-09-08 13:00:00,86.2,72.6,29.86,East,90,5.0,10.0,64,0.00,,---,0.00,VWS V14.01,2013-09-08 18:00:00,
2013-09-08 13:06:00,86.9,72.0,29.86,ENE,58,6.0,10.0,62,0.00,,,0.00,weatherlink.com 1.10,2013-09-08 18:06:00,
2013-09-08 13:10:00,86.7,72.1,29.86,SE,135,5.0,10.0,62,0.00,,---,0.00,VWS V14.01,2013-09-08 18:10:00,
2013-09-08 13:20:00,87.0,72.4,29.86,ENE,68,5.0,9.0,62,0.00,,---,0.00,VWS V14.01,2013-09-08 18:20:00,
2013-09-08 13:21:00,86.9,73.0,29.86,East,84,3.0,9.0,63,0.00,,,0.00,weatherlink.com 1.10,2013-09-08 18:21:00,
2013-09-08 13:30:00,87.2,73.1,29.86,ENE,68,4.0,8.0,63,0.00,,---,0.00,VWS V14.01,2013-09-08 18:30:00,
2013-09-08 13:36:00,89.0,74.0,29.86,SE,142,4.0,10.0,61,0.00,,,0.00,weatherlink.com 1.10,2013-09-08 18:36:00,
2013-09-08 13:40:00,88.8,73.1,29.85,SE,135,4.0,10.0,60,0.00,,---,0.00,VWS V14.01,2013-09-08 18:40:00,
2013-09-08 13:50:00,89.1,73.4,29.85,SE,135,3.0,7.0,60,0.00,,---,0.00,VWS V14.01,2013-09-08 18:50:00,
2013-09-08 13:51:00,89.5,73.0,29.85,SSW,194,4.0,10.0,59,0.00,,,0.00,weatherlink.com 1.10,2013-09-08 18:51:00,
2013-09-08 14:00:00,89.5,72.8,29.85,SSE,158,4.0,10.0,58,0.00,,---,0.00,VWS V14.01,2013-09-08 19:00:00,
2013-09-08 14:06:00,90.5,74.0,29.84,SE,139,5.0,8.0,58,0.00,,,0.00,weatherlink.com 1.10,2013-09-08 19:06:00,
2013-09-08 14:10:00,90.1,73.3,29.84,SE,135,4.0,11.0,58,0.00,,---,0.00,VWS V14.01,2013-09-08 19:10:00,
2013-09-08 14:20:00,87.0,72.4,29.86,ENE,68,5.0,9.0,62,0.00,,---,0.00,VWS V14.01,2013-09-08 19:20:00,
2013-09-08 14:21:00,90.7,74.0,29.85,ESE,108,7.0,11.0,59,0.00,,,0.00,weatherlink.com 1.10,2013-09-08 19:21:00,
2013-09-08 14:30:00,91.3,73.9,29.84,SSW,205,4.0,4.0,57,0.00,,---,0.00,VWS V14.01,2013-09-08 19:30:00,
2013-09-08 14:35:00,91.3,73.9,29.84,South,172,4.0,10.0,57,0.00,,---,0.00,VWS V14.01,2013-09-08 19:35:00,
2013-09-08 14:40:00,91.4,74.0,29.84,SSW,202,5.0,10.0,57,0.00,,---,0.00,VWS V14.01,2013-09-08 19:40:00,
2013-09-08 14:50:00,91.5,73.6,29.83,SSW,202,4.0,10.0,56,0.00,,---,0.00,VWS V14.01,2013-09-08 19:50:00,
2013-09-08 14:52:00,92.1,74.0,29.83,WSW,238,3.0,11.0,55,0.00,,,0.00,weatherlink.com 1.10,2013-09-08 19:52:00,
2013-09-08 15:00:00,91.8,74.4,29.83,SSW,202,5.0,11.0,57,0.00,,---,0.00,VWS V14.01,2013-09-08 20:00:00,
2013-09-08 15:07:00,91.6,75.0,29.83,South,187,3.0,10.0,58,0.00,,,0.00,weatherlink.com 1.10,2013-09-08 20:07:00,
2013-09-08 15:10:00,91.5,73.1,29.83,SE,135,5.0,10.0,55,0.00,,---,0.00,VWS V14.01,2013-09-08 20:10:00,
2013-09-08 15:20:00,91.6,73.2,29.83,SE,135,5.0,10.0,55,0.00,,---,0.00,VWS V14.01,2013-09-08 20:20:00,
2013-09-08 15:22:00,91.2,73.0,29.83,East,94,2.0,10.0,56,0.00,,,0.00,weatherlink.com 1.10,2013-09-08 20:22:00,
2013-09-08 15:30:00,91.3,72.9,29.83,ENE,68,4.0,10.0,55,0.00,,---,0.00,VWS V14.01,2013-09-08 20:30:00,
2013-09-08 15:37:00,91.5,74.0,29.82,ESE,102,3.0,11.0,57,0.00,,,0.00,weatherlink.com 1.10,2013-09-08 20:37:00,
2013-09-08 15:40:00,91.3,73.9,29.82,SE,135,4.0,11.0,57,0.00,,---,0.00,VWS V14.01,2013-09-08 20:40:00,
2013-09-08 15:50:00,92.3,73.3,29.82,SE,135,3.0,9.0,54,0.00,,---,0.00,VWS V14.01,2013-09-08 20:50:00,
2013-09-08 15:52:00,92.7,74.0,29.82,South,190,2.0,7.0,54,0.00,,,0.00,weatherlink.com 1.10,2013-09-08 20:52:00,
2013-09-08 16:00:00,92.8,73.7,29.82,SE,135,4.0,9.0,54,0.00,,---,0.00,VWS V14.01,2013-09-08 21:00:00,
2013-09-08 16:07:00,92.8,73.0,29.82,SSE,168,2.0,9.0,53,0.00,,,0.00,weatherlink.com 1.10,2013-09-08 21:07:00,
2013-09-08 16:10:00,92.7,73.6,29.81,ESE,112,3.0,7.0,54,0.00,,---,0.00,VWS V14.01,2013-09-08 21:10:00,
2013-09-08 16:20:00,93.1,73.4,29.81,South,180,3.0,8.0,53,0.00,,---,0.00,VWS V14.01,2013-09-08 21:20:00,
2013-09-08 16:22:00,93.2,74.0,29.81,SSW,201,2.0,8.0,53,0.00,,,0.00,weatherlink.com 1.10,2013-09-08 21:22:00,
2013-09-08 16:30:00,93.1,74.6,29.81,SE,135,4.0,9.0,55,0.00,,---,0.00,VWS V14.01,2013-09-08 21:30:00,
2013-09-08 16:37:00,93.4,74.0,29.80,SSE,167,6.0,10.0,53,0.00,,,0.00,weatherlink.com 1.10,2013-09-08 21:37:00,
2013-09-08 16:40:00,93.2,73.5,29.81,SSW,202,4.0,10.0,53,0.00,,---,0.00,VWS V14.01,2013-09-08 21:40:00,
2013-09-08 16:50:00,93.5,73.2,29.81,SSW,202,3.0,10.0,52,0.00,,---,0.00,VWS V14.01,2013-09-08 21:50:00,
2013-09-08 16:52:00,94.1,73.0,29.80,SE,130,4.0,7.0,51,0.00,,,0.00,weatherlink.com 1.10,2013-09-08 21:52:00,
2013-09-08 17:00:00,94.0,71.3,29.80,South,180,4.0,9.0,48,0.00,,---,0.00,VWS V14.01,2013-09-08 22:00:00,
2013-09-08 17:07:00,93.4,71.0,29.80,SSE,159,6.0,9.0,48,0.00,,,0.00,weatherlink.com 1.10,2013-09-08 22:07:00,
2013-09-08 17:10:00,93.6,71.6,29.80,SSW,202,5.0,9.0,49,0.00,,---,0.00,VWS V14.01,2013-09-08 22:10:00,
2013-09-08 17:20:00,93.3,71.9,29.79,SSE,158,4.0,9.0,50,0.00,,---,0.00,VWS V14.01,2013-09-08 22:20:00,
2013-09-08 17:22:00,93.3,72.0,29.79,SSW,205,4.0,9.0,50,0.00,,,0.00,weatherlink.com 1.10,2013-09-08 22:22:00,
2013-09-08 17:30:00,93.2,71.8,29.79,SSW,202,4.0,8.0,50,0.00,,---,0.00,VWS V14.01,2013-09-08 22:30:00,
2013-09-08 17:37:00,93.1,72.0,29.79,South,172,4.0,6.0,50,0.00,,,0.00,weatherlink.com 1.10,2013-09-08 22:37:00,
2013-09-08 17:40:00,93.1,71.7,29.79,SSW,202,3.0,7.0,50,0.00,,---,0.00,VWS V14.01,2013-09-08 22:40:00,
2013-09-08 17:50:00,92.5,71.8,29.79,SSW,202,4.0,8.0,51,0.00,,---,0.00,VWS V14.01,2013-09-08 22:50:00,
2013-09-08 17:52:00,92.5,71.0,29.80,SE,125,2.0,8.0,50,0.00,,,0.00,weatherlink.com 1.10,2013-09-08 22:52:00,
2013-09-08 18:00:00,92.4,71.7,29.80,SSW,202,3.0,6.0,51,0.00,,---,0.00,VWS V14.01,2013-09-08 23:00:00,
2013-09-08 18:08:00,91.5,71.0,29.79,SSW,210,2.0,9.0,52,0.00,,,0.00,weatherlink.com 1.10,2013-09-08 23:08:00,
2013-09-08 18:10:00,91.7,71.6,29.79,South,180,4.0,9.0,52,0.00,,---,0.00,VWS V14.01,2013-09-08 23:10:00,
2013-09-08 18:20:00,91.5,71.4,29.79,SSW,202,3.0,6.0,52,0.00,,---,0.00,VWS V14.01,2013-09-08 23:20:00,
2013-09-08 18:23:00,91.7,72.0,29.79,South,172,6.0,7.0,52,0.00,,,0.00,weatherlink.com 1.10,2013-09-08 23:23:00,
2013-09-08 18:30:00,91.4,72.4,29.79,SSE,158,4.0,8.0,54,0.00,,---,0.00,VWS V14.01,2013-09-08 23:30:00,
2013-09-08 18:38:00,91.1,72.0,29.79,South,172,4.0,7.0,54,0.00,,,0.00,weatherlink.com 1.10,2013-09-08 23:38:00,
2013-09-08 18:40:00,91.1,72.2,29.79,SE,135,3.0,7.0,54,0.00,,---,0.00,VWS V14.01,2013-09-08 23:40:00,
2013-09-08 18:50:00,90.5,72.1,29.78,SE,135,3.0,7.0,55,0.00,,---,0.00,VWS V14.01,2013-09-08 23:50:00,
2013-09-08 18:53:00,90.6,73.0,29.78,SSE,153,1.0,5.0,56,0.00,,,0.00,weatherlink.com 1.10,2013-09-08 23:53:00,
2013-09-08 19:00:00,90.4,72.6,29.78,SE,135,2.0,5.0,56,0.00,,---,0.00,VWS V14.01,2013-09-09 00:00:00,
2013-09-08 19:08:00,89.9,72.0,29.78,ESE,110,1.0,5.0,56,0.00,,,0.00,weatherlink.com 1.10,2013-09-09 00:08:00,
2013-09-08 19:10:00,89.9,72.1,29.78,SE,135,2.0,5.0,56,0.00,,---,0.00,VWS V14.01,2013-09-09 00:10:00,
2013-09-08 19:20:00,89.7,72.4,29.78,SSE,158,2.0,4.0,57,0.00,,---,0.00,VWS V14.01,2013-09-09 00:20:00,
2013-09-08 19:23:00,89.3,72.0,29.78,South,182,2.0,4.0,57,0.00,,,0.00,weatherlink.com 1.10,2013-09-09 00:23:00,
2013-09-08 19:30:00,89.2,72.0,29.78,SSE,158,2.0,5.0,57,0.00,,---,0.00,VWS V14.01,2013-09-09 00:30:00,
2013-09-08 19:38:00,88.6,72.0,29.78,SSE,164,3.0,4.0,58,0.00,,,0.00,weatherlink.com 1.10,2013-09-09 00:38:00,
2013-09-08 19:40:00,88.7,72.0,29.78,SE,135,2.0,4.0,58,0.00,,---,0.00,VWS V14.01,2013-09-09 00:40:00,
2013-09-08 19:50:00,88.3,72.7,29.78,SE,135,1.0,3.0,60,0.00,,---,0.00,VWS V14.01,2013-09-09 00:50:00,
2013-09-08 19:53:00,87.8,72.0,29.78,SE,133,0.0,2.0,60,0.00,,,0.00,weatherlink.com 1.10,2013-09-09 00:53:00,
2013-09-08 20:00:00,87.7,72.6,29.78,SE,135,1.0,3.0,61,0.00,,---,0.00,VWS V14.01,2013-09-09 01:00:00,
2013-09-08 20:08:00,87.0,72.0,29.78,SW,227,1.0,4.0,61,0.00,,,0.00,weatherlink.com 1.10,2013-09-09 01:08:00,
2013-09-08 20:10:00,87.2,72.6,29.78,SE,135,1.0,4.0,62,0.00,,---,0.00,VWS V14.01,2013-09-09 01:10:00,
2013-09-08 20:20:00,86.8,72.2,29.78,SSE,158,1.0,3.0,62,0.00,,---,0.00,VWS V14.01,2013-09-09 01:20:00,
2013-09-08 20:23:00,86.7,72.0,29.78,SE,128,2.0,3.0,62,0.00,,,0.00,weatherlink.com 1.10,2013-09-09 01:23:00,
2013-09-08 20:30:00,86.7,72.6,29.78,SE,135,1.0,4.0,63,0.00,,---,0.00,VWS V14.01,2013-09-09 01:30:00,
2013-09-08 20:38:00,86.1,72.0,29.78,SSW,200,2.0,4.0,63,0.00,,,0.00,weatherlink.com 1.10,2013-09-09 01:38:00,
2013-09-08 20:40:00,86.2,72.1,29.78,SSE,158,2.0,4.0,63,0.00,,---,0.00,VWS V14.01,2013-09-09 01:40:00,
2013-09-08 20:50:00,85.9,71.8,29.78,SE,135,1.0,4.0,63,0.00,,---,0.00,VWS V14.01,2013-09-09 01:50:00,
2013-09-08 20:53:00,85.5,71.0,29.78,ESE,117,3.0,4.0,63,0.00,,,0.00,weatherlink.com 1.10,2013-09-09 01:53:00,
2013-09-08 21:00:00,85.3,71.8,29.78,SE,135,2.0,4.0,64,0.00,,---,0.00,VWS V14.01,2013-09-09 02:00:00,
2013-09-08 21:08:00,85.4,71.0,29.78,SSE,160,4.0,4.0,63,0.00,,,0.00,weatherlink.com 1.10,2013-09-09 02:08:00,
2013-09-08 21:10:00,85.3,71.3,29.78,SE,135,1.0,4.0,63,0.00,,---,0.00,VWS V14.01,2013-09-09 02:10:00,
2013-09-08 21:20:00,85.0,71.5,29.78,SSW,202,2.0,4.0,64,0.00,,---,0.00,VWS V14.01,2013-09-09 02:20:00,
2013-09-08 21:23:00,84.6,71.0,29.78,South,191,1.0,4.0,64,0.00,,,0.00,weatherlink.com 1.10,2013-09-09 02:23:00,
2013-09-08 21:30:00,84.6,71.1,29.78,SE,135,1.0,3.0,64,0.00,,---,0.00,VWS V14.01,2013-09-09 02:30:00,
2013-09-08 21:38:00,84.1,71.0,29.78,SE,130,2.0,3.0,65,0.00,,,0.00,weatherlink.com 1.10,2013-09-09 02:38:00,
2013-09-08 21:40:00,84.4,71.4,29.78,SSE,158,1.0,3.0,65,0.00,,---,0.00,VWS V14.01,2013-09-09 02:40:00,
2013-09-08 21:50:00,84.1,71.1,29.78,SE,135,1.0,3.0,65,0.00,,---,0.00,VWS V14.01,2013-09-09 02:50:00,
2013-09-08 21:53:00,83.8,71.0,29.79,SE,141,1.0,3.0,66,0.00,,,0.00,weatherlink.com 1.10,2013-09-09 02:53:00,
2013-09-08 22:00:00,83.7,71.1,29.78,SE,135,1.0,2.0,66,0.00,,---,0.00,VWS V14.01,2013-09-09 03:00:00,
2013-09-08 22:08:00,83.2,71.0,29.78,South,172,2.0,5.0,67,0.00,,,0.00,weatherlink.com 1.10,2013-09-09 03:08:00,
2013-09-08 22:10:00,83.4,71.7,29.78,SSE,158,2.0,5.0,68,0.00,,---,0.00,VWS V14.01,2013-09-09 03:10:00,
2013-09-08 22:20:00,83.0,70.9,29.78,SSE,158,3.0,5.0,67,0.00,,---,0.00,VWS V14.01,2013-09-09 03:20:00,
2013-09-08 22:23:00,83.0,71.0,29.78,South,174,3.0,5.0,67,0.00,,,0.00,weatherlink.com 1.10,2013-09-09 03:23:00,
2013-09-08 22:30:00,82.9,71.3,29.78,SSE,158,3.0,5.0,68,0.00,,---,0.00,VWS V14.01,2013-09-09 03:30:00,
2013-09-08 22:38:00,82.5,71.0,29.79,SE,130,3.0,4.0,69,0.00,,,0.00,weatherlink.com 1.10,2013-09-09 03:38:00,
2013-09-08 22:40:00,82.6,71.4,29.78,SSE,158,2.0,4.0,69,0.00,,---,0.00,VWS V14.01,2013-09-09 03:40:00,
2013-09-08 22:50:00,81.9,71.2,29.78,SE,135,3.0,5.0,70,0.00,,---,0.00,VWS V14.01,2013-09-09 03:50:00,
2013-09-08 22:53:00,81.9,71.0,29.78,SSW,210,6.0,6.0,70,0.00,,,0.00,weatherlink.com 1.10,2013-09-09 03:53:00,
2013-09-08 23:00:00,81.7,71.8,29.78,South,180,3.0,6.0,72,0.00,,---,0.00,VWS V14.01,2013-09-09 04:00:00,
2013-09-08 23:08:00,81.4,71.0,29.79,South,176,6.0,8.0,71,0.00,,,0.00,weatherlink.com 1.10,2013-09-09 04:08:00,
2013-09-08 23:10:00,81.3,71.4,29.79,SSW,202,3.0,8.0,72,0.00,,---,0.00,VWS V14.01,2013-09-09 04:10:00,
2013-09-08 23:20:00,81.2,71.3,29.79,SSE,158,4.0,8.0,72,0.00,,---,0.00,VWS V14.01,2013-09-09 04:20:00,
2013-09-08 23:23:00,81.4,72.0,29.79,SSW,200,3.0,8.0,72,0.00,,,0.00,weatherlink.com 1.10,2013-09-09 04:23:00,
2013-09-08 23:30:00,81.2,71.7,29.79,SSW,202,3.0,6.0,73,0.00,,---,0.00,VWS V14.01,2013-09-09 04:30:00,
2013-09-08 23:38:00,80.6,72.0,29.79,ESE,120,1.0,5.0,74,0.00,,,0.00,weatherlink.com 1.10,2013-09-09 04:38:00,
2013-09-08 23:40:00,80.5,71.5,29.79,SSW,202,2.0,6.0,74,0.00,,---,0.00,VWS V14.01,2013-09-09 04:40:00,
2013-09-08 23:50:00,80.0,71.8,29.78,South,180,3.0,7.0,76,0.00,,---,0.00,VWS V14.01,2013-09-09 04:50:00,
2013-09-08 23:53:00,80.0,72.0,29.79,SSE,167,1.0,5.0,76,0.00,,,0.00,weatherlink.com 1.10,2013-09-09 04:53:00,